429P/LINEAR-Hill (2008)

Japanese version
Home page
Updated on October 6, 2021

---------------------------------------------------------------------

* Profile

Designation 429P/2008 QP20
Discovery Date August 25 and September 23, 2008
Magnitude 20.7 mag, 17.7 mag
Discoverer Lincoln Laboratory Near-Earth Asteroid Research project, R. E. Hill (Catalina Sky Survey)

* Pictures

* Orbital Elements

Epoch 2008 Oct. 21.0 TT = JDT 2454760.5                                         
T 2008 Nov. 2.69161 TT                                  Rudenko                 
q   1.7231392            (2000.0)            P               Q                  
n   0.15114776     Peri.   72.03392     +0.79169777     -0.60603467             
a   3.4903441      Node   325.15355     +0.49698292     +0.71225653             
e   0.5063125      Incl.    7.74984     +0.35527823     +0.35413644             
P   6.52                                                                        
From 538 observations 2008 Aug. 25-2021 Aug. 17, mean residual 0".8.            

* Finding Charts

* Magnitudes Graph

        m1 = 11.0 + 5 log d + 25.0 log r(t - 45)

---------------------------------------------------------------------

The orbital elements are published on M.P.E.C. 2021-Q68.
The charts are made with StellaNavigator Ver.8 (AstroArts).
The magnitudes graphs are made with Comet for Windows.

---------------------------------------------------------------------

Copyright(C) Seiichi Yoshida (comet@aerith.net). All rights reserved.